Terug naar catalogus

SHIYAN 25

SY-25

ActiefWetenschapSSO
NORAD 57047·PAYLOAD·🇨🇳 China

Gelanceerd Jun 20, 2023 vanaf Taiyuan Satellite Launch Center

Loading…

Volgende Passages (komende 24 uur)

TLE

VersSource: Space-Track

Epoch: Sep 14, 2026, 22:07 UTC

1 57047U 23087A   26257.92186421  .00121615  80680-5  22659-3 0  9998
2 57047  96.9001 322.6646 0010504 237.4580 122.5686 16.00985336189153

Volg SHIYAN 25 in realtime met AllMySat

Download on the App Store